Alexandria, MN

5:49 PM CDT on August 29, 2016 (GMT -0500)
Chandler

Weather History for KAXN - August, 2013

Change the Weather History Date:

Monday, August 19, 2013

  Actual Average Record
Temperature  
Mean Temperature 76 °F -  
Max Temperature 88 °F 77 °F 99 °F (1976)
Min Temperature 66 °F 57 °F 39 °F (2004)
Cooling Degree Days 11    
Growing Degree Days 26 (Base 50)    
Moisture  
Dew Point 65 °F    
Average Humidity 69    
Maximum Humidity 87    
Minimum Humidity 49    
Precipitation  
Precipitation 0.00 in - - ()
Sea Level Pressure  
Sea Level Pressure 29.92 in    
Wind  
Wind Speed 8 mph (South)    
Max Wind Speed 12 mph    
Max Gust Speed -    
Visibility 10 miles    
Events      
Averages and records for this station are not official NWS values.
T = Trace of Precipitation, MM = Missing Value Source: NWS Daily Summary

Daily Weather History Graph

Daily Weather History Graph

Search for Another Location

Airport or City:

Trip Planner

Search our weather history database for the weather conditions in past years. The results will help you decide how hot, cold, wet, or windy it might be!

Date:

Astronomy

Aug. 19, 2013 Rise Set
Actual Time 6:26 AM CDT 8:22 PM CDT
Civil Twilight 5:54 AM CDT 8:54 PM CDT
Nautical Twilight 5:15 AM CDT 9:33 PM CDT
Astronomical Twilight 4:31 AM CDT 10:16 PM CDT
Moon 7:14 PM CDT (8/19) 4:45 AM CDT (8/19)
Length of Visible Light 14h 59m
Length of Day
13h 55m
Waxing Gibbous, 97% of the Moon is Illuminated
Aug 19
Waxing Gibbous
Aug 20
Full
Aug 28
Last Quarter
Sep 5
New
Sep 12
First Quarter

Hourly Weather History & Observations

Time (CDT) Temp. Heat Index Dew Point Humidity Pressure Visibility Wind Dir Wind Speed Gust Speed Precip Events Conditions
12:53 AM 71.1 °F - 60.1 °F 68% 29.98 in 10.0 mi SSW 9.2 mph - N/A   Clear
1:53 AM 70.0 °F - 61.0 °F 73% 29.98 in 10.0 mi SSW 11.5 mph - N/A   Partly Cloudy
2:53 AM 69.1 °F - 61.0 °F 75% 29.96 in 10.0 mi SSW 8.1 mph - N/A   Clear
3:53 AM 68.0 °F - 61.0 °F 78% 29.94 in 10.0 mi South 9.2 mph - N/A   Partly Cloudy
4:53 AM 66.9 °F - 61.0 °F 81% 29.94 in 10.0 mi South 6.9 mph - N/A   Scattered Clouds
5:53 AM 66.9 °F - 61.0 °F 81% 29.93 in 10.0 mi SSW 9.2 mph - N/A   Clear
6:53 AM 66.9 °F - 61.0 °F 81% 29.93 in 10.0 mi SSW 6.9 mph - N/A   Clear
7:53 AM 68.0 °F - 62.1 °F 81% 29.94 in 10.0 mi SSW 8.1 mph - N/A   Clear
8:53 AM 70.0 °F - 62.1 °F 76% 29.94 in 10.0 mi SSW 9.2 mph - N/A   Clear
9:53 AM 73.9 °F - 63.0 °F 68% 29.94 in 10.0 mi SSW 8.1 mph - N/A   Clear
10:53 AM 75.9 °F - 64.0 °F 67% 29.94 in 10.0 mi West 8.1 mph - N/A   Clear
11:53 AM 79.0 °F - 64.9 °F 62% 29.93 in 10.0 mi Variable 6.9 mph - N/A   Clear
12:53 PM 81.0 °F 83.0 °F 66.0 °F 60% 29.92 in 10.0 mi South 5.8 mph - N/A   Clear
1:53 PM 84.0 °F 86.3 °F 66.0 °F 55% 29.91 in 10.0 mi SSE 6.9 mph - N/A   Clear
2:53 PM 86.0 °F 87.6 °F 64.9 °F 49% 29.90 in 10.0 mi SSW 11.5 mph - N/A   Clear
3:53 PM 86.0 °F 88.2 °F 66.0 °F 51% 29.89 in 10.0 mi South 10.4 mph - N/A   Clear
4:53 PM 84.9 °F 87.6 °F 66.9 °F 55% 29.88 in 10.0 mi South 10.4 mph - N/A   Scattered Clouds
5:53 PM 84.9 °F 88.2 °F 68.0 °F 57% 29.88 in 10.0 mi South 11.5 mph - N/A   Clear
6:53 PM 82.9 °F 85.8 °F 68.0 °F 60% 29.87 in 10.0 mi South 9.2 mph - N/A   Clear
7:53 PM 82.0 °F 85.5 °F 69.1 °F 65% 29.87 in 10.0 mi SSW 4.6 mph - N/A   Mostly Cloudy
8:53 PM 79.0 °F - 69.1 °F 72% 29.87 in 10.0 mi SSE 3.5 mph - N/A   Mostly Cloudy
9:53 PM 75.9 °F - 69.1 °F 79% 29.88 in 10.0 mi SSE 5.8 mph - N/A   Clear
10:53 PM 73.9 °F - 69.1 °F 85% 29.88 in 10.0 mi South 5.8 mph - N/A   Clear
11:53 PM 73.0 °F - 69.1 °F 87% 29.87 in 9.0 mi SSE 4.6 mph - N/A   Clear